Time,TemperatureF,DewpointF,PressureIn,WindDirection,WindDirectionDegrees,WindSpeedMPH,WindSpeedGustMPH,Humidity,HourlyPrecipIn,Conditions,Clouds,dailyrainin,SoftwareType,DateUTC
2013-10-14 00:00:00,68.5,67.0,30.05,ESE,112,0.0,20.0,95,0.00,,,0.04,Wunderground v.1.15,2013-10-14 05:00:00,
2013-10-14 00:10:00,68.5,67.0,30.05,ESE,112,0.0,20.0,95,0.00,,,0.04,Wunderground v.1.15,2013-10-14 05:10:00,
2013-10-14 00:20:00,68.5,67.0,30.05,ESE,112,0.0,20.0,95,0.35,,,0.01,Wunderground v.1.15,2013-10-14 05:20:00,
2013-10-14 00:30:00,68.4,66.9,30.04,ESE,112,0.0,20.0,95,0.11,,,0.03,Wunderground v.1.15,2013-10-14 05:30:00,
2013-10-14 00:40:00,68.4,66.9,30.04,ESE,112,0.0,20.0,95,0.06,,,0.04,Wunderground v.1.15,2013-10-14 05:40:00,
2013-10-14 00:50:00,68.5,67.3,30.03,ESE,112,0.0,20.0,96,0.06,,,0.04,Wunderground v.1.15,2013-10-14 05:50:00,
2013-10-14 01:00:00,68.4,67.2,30.03,ESE,112,0.0,20.0,96,0.11,,,0.06,Wunderground v.1.15,2013-10-14 06:00:00,
2013-10-14 01:10:00,68.5,67.3,30.03,ESE,112,0.0,20.0,96,0.07,,,0.07,Wunderground v.1.15,2013-10-14 06:10:00,
2013-10-14 01:20:00,68.5,67.3,30.03,ESE,112,0.0,20.0,96,0.00,,,0.07,Wunderground v.1.15,2013-10-14 06:20:00,
2013-10-14 01:30:00,68.5,67.3,30.03,ESE,112,0.0,20.0,96,0.00,,,0.07,Wunderground v.1.15,2013-10-14 06:30:00,
2013-10-14 01:40:00,68.6,67.4,30.04,ESE,112,0.0,20.0,96,0.00,,,0.07,Wunderground v.1.15,2013-10-14 06:40:00,
2013-10-14 01:50:00,68.6,67.4,30.03,ESE,112,0.0,20.0,96,0.00,,,0.08,Wunderground v.1.15,2013-10-14 06:50:00,
2013-10-14 02:00:00,68.6,67.4,30.03,ESE,112,0.0,20.0,96,0.00,,,0.08,Wunderground v.1.15,2013-10-14 07:00:00,
2013-10-14 02:10:00,68.6,67.4,30.03,ESE,112,0.0,20.0,96,0.00,,,0.08,Wunderground v.1.15,2013-10-14 07:10:00,
2013-10-14 02:20:00,68.6,67.4,30.02,ESE,112,0.0,20.0,96,0.00,,,0.08,Wunderground v.1.15,2013-10-14 07:20:00,
2013-10-14 02:30:00,68.7,67.5,30.02,ESE,112,0.0,20.0,96,0.00,,,0.08,Wunderground v.1.15,2013-10-14 07:30:00,
2013-10-14 02:40:00,68.8,67.6,30.01,ESE,112,0.0,20.0,96,0.00,,,0.08,Wunderground v.1.15,2013-10-14 07:40:00,
2013-10-14 07:10:00,69.7,68.8,29.98,ESE,122,0.0,0.0,97,0.00,,,0.09,Wunderground v.1.15,2013-10-14 12:10:00,
2013-10-14 07:20:00,69.8,68.9,29.98,ESE,122,0.0,0.0,97,0.00,,,0.09,Wunderground v.1.15,2013-10-14 12:20:00,
2013-10-14 07:30:00,69.7,68.8,29.99,ESE,123,0.0,0.0,97,0.00,,,0.09,Wunderground v.1.15,2013-10-14 12:30:00,
2013-10-14 07:40:00,69.7,68.8,29.98,ESE,123,0.0,1.0,97,0.00,,,0.09,Wunderground v.1.15,2013-10-14 12:40:00,
2013-10-14 07:50:00,69.7,68.8,29.99,ESE,123,0.0,1.0,97,0.00,,,0.09,Wunderground v.1.15,2013-10-14 12:50:00,
2013-10-14 08:00:00,69.8,68.9,29.98,ESE,123,0.0,4.0,97,0.00,,,0.09,Wunderground v.1.15,2013-10-14 13:00:00,
2013-10-14 08:10:00,69.8,68.9,29.98,SE,124,0.0,1.0,97,0.00,,,0.09,Wunderground v.1.15,2013-10-14 13:10:00,
2013-10-14 08:20:00,69.8,68.9,29.98,SE,124,1.0,1.0,97,0.00,,,0.09,Wunderground v.1.15,2013-10-14 13:20:00,
2013-10-14 08:30:00,69.9,69.0,29.98,SE,130,1.0,4.0,97,0.00,,,0.09,Wunderground v.1.15,2013-10-14 13:30:00,
2013-10-14 08:40:00,69.9,69.0,29.98,SE,130,3.0,3.0,97,0.00,,,0.09,Wunderground v.1.15,2013-10-14 13:40:00,
2013-10-14 08:50:00,70.0,69.1,29.97,SE,132,1.0,1.0,97,0.00,,,0.10,Wunderground v.1.15,2013-10-14 13:50:00,
2013-10-14 09:00:00,70.1,69.2,29.97,SE,139,4.0,5.0,97,0.00,,,0.10,Wunderground v.1.15,2013-10-14 14:00:00,
2013-10-14 09:10:00,70.4,69.5,29.97,SE,140,5.0,7.0,97,0.00,,,0.10,Wunderground v.1.15,2013-10-14 14:10:00,
2013-10-14 09:20:00,70.5,69.6,29.97,SE,138,8.0,8.0,97,0.00,,,0.10,Wunderground v.1.15,2013-10-14 14:20:00,
2013-10-14 09:30:00,70.6,69.7,29.98,SSE,147,6.0,6.0,97,0.00,,,0.10,Wunderground v.1.15,2013-10-14 14:30:00,
2013-10-14 09:40:00,70.7,69.8,29.98,SSE,153,3.0,5.0,97,0.00,,,0.10,Wunderground v.1.15,2013-10-14 14:40:00,
2013-10-14 09:50:00,70.8,69.6,29.98,SSE,148,5.0,10.0,96,0.00,,,0.10,Wunderground v.1.15,2013-10-14 14:50:00,
2013-10-14 10:00:00,71.0,69.8,29.97,SE,144,8.0,8.0,96,0.00,,,0.10,Wunderground v.1.15,2013-10-14 15:00:00,
2013-10-14 10:10:00,71.3,70.1,29.98,SSE,163,8.0,8.0,96,0.00,,,0.10,Wunderground v.1.15,2013-10-14 15:10:00,
2013-10-14 10:20:00,71.6,70.4,29.97,SSE,159,5.0,5.0,96,0.00,,,0.10,Wunderground v.1.15,2013-10-14 15:20:00,
2013-10-14 10:30:00,71.8,70.3,29.97,SSE,160,6.0,9.0,95,0.00,,,0.10,Wunderground v.1.15,2013-10-14 15:30:00,
2013-10-14 10:40:00,71.9,70.1,29.97,South,171,5.0,7.0,94,0.00,,,0.10,Wunderground v.1.15,2013-10-14 15:40:00,
2013-10-14 10:50:00,72.0,70.2,29.97,SSE,159,6.0,6.0,94,0.00,,,0.10,Wunderground v.1.15,2013-10-14 15:50:00,
2013-10-14 11:00:00,72.2,70.4,29.97,SSE,166,4.0,4.0,94,0.00,,,0.10,Wunderground v.1.15,2013-10-14 16:00:00,
2013-10-14 11:10:00,72.6,70.5,29.98,South,177,4.0,4.0,93,0.00,,,0.10,Wunderground v.1.15,2013-10-14 16:10:00,
2013-10-14 11:20:00,72.6,70.5,29.97,South,184,4.0,4.0,93,0.00,,,0.10,Wunderground v.1.15,2013-10-14 16:20:00,
2013-10-14 11:30:00,72.6,70.1,29.97,South,182,4.0,4.0,92,0.00,,,0.10,Wunderground v.1.15,2013-10-14 16:30:00,
2013-10-14 11:40:00,72.8,70.3,29.97,South,175,4.0,5.0,92,0.00,,,0.10,Wunderground v.1.15,2013-10-14 16:40:00,
2013-10-14 11:50:00,73.1,70.6,29.97,South,177,4.0,4.0,92,0.00,,,0.10,Wunderground v.1.15,2013-10-14 16:50:00,
2013-10-14 12:00:00,72.7,70.6,29.97,South,178,5.0,11.0,93,0.00,,,0.10,Wunderground v.1.15,2013-10-14 17:00:00,
2013-10-14 12:10:00,72.1,70.0,29.97,South,179,9.0,9.0,93,0.00,,,0.10,Wunderground v.1.15,2013-10-14 17:10:00,
2013-10-14 12:20:00,71.7,69.3,29.96,South,182,9.0,10.0,92,0.00,,,0.10,Wunderground v.1.15,2013-10-14 17:20:00,
2013-10-14 12:30:00,71.7,69.3,29.95,South,186,10.0,10.0,92,0.00,,,0.10,Wunderground v.1.15,2013-10-14 17:30:00,
2013-10-14 12:40:00,72.3,69.8,29.95,South,183,10.0,14.0,92,0.00,,,0.10,Wunderground v.1.15,2013-10-14 17:40:00,
2013-10-14 12:50:00,73.6,70.2,29.94,South,169,11.0,12.0,89,0.00,,,0.10,Wunderground v.1.15,2013-10-14 17:50:00,
2013-10-14 13:00:00,74.6,70.5,29.93,SSE,166,12.0,16.0,87,0.00,,,0.10,Wunderground v.1.15,2013-10-14 18:00:00,
2013-10-14 13:10:00,74.6,70.1,29.92,SSW,192,11.0,11.0,86,0.00,,,0.10,Wunderground v.1.15,2013-10-14 18:10:00,
2013-10-14 13:20:00,74.8,70.0,29.92,South,173,9.0,9.0,85,0.00,,,0.10,Wunderground v.1.15,2013-10-14 18:20:00,
2013-10-14 13:30:00,74.9,70.1,29.92,South,173,8.0,11.0,85,0.00,,,0.10,Wunderground v.1.15,2013-10-14 18:30:00,
2013-10-14 13:40:00,75.1,69.9,29.91,SSW,200,7.0,10.0,84,0.00,,,0.10,Wunderground v.1.15,2013-10-14 18:40:00,
2013-10-14 13:50:00,75.8,70.3,29.90,South,178,7.0,7.0,83,0.00,,,0.10,Wunderground v.1.15,2013-10-14 18:50:00,
2013-10-14 14:00:00,76.8,70.9,29.90,SSW,199,8.0,9.0,82,0.00,,,0.10,Wunderground v.1.15,2013-10-14 19:00:00,
2013-10-14 14:10:00,77.6,70.9,29.88,South,182,7.0,11.0,80,0.00,,,0.10,Wunderground v.1.15,2013-10-14 19:10:00,
2013-10-14 14:20:00,78.3,70.9,29.88,SSW,196,7.0,7.0,78,0.00,,,0.10,Wunderground v.1.15,2013-10-14 19:20:00,
2013-10-14 14:30:00,78.7,69.7,29.88,South,179,8.0,13.0,74,0.00,,,0.10,Wunderground v.1.15,2013-10-14 19:30:00,
2013-10-14 14:40:00,78.5,69.9,29.87,South,175,6.0,8.0,75,0.00,,,0.10,Wunderground v.1.15,2013-10-14 19:40:00,
2013-10-14 14:50:00,78.3,69.7,29.86,SSW,198,5.0,5.0,75,0.00,,,0.10,Wunderground v.1.15,2013-10-14 19:50:00,
2013-10-14 15:00:00,78.6,68.8,29.86,SSW,201,5.0,7.0,72,0.00,,,0.10,Wunderground v.1.15,2013-10-14 20:00:00,
2013-10-14 15:10:00,78.7,69.3,29.86,South,184,4.0,4.0,73,0.00,,,0.10,Wunderground v.1.15,2013-10-14 20:10:00,
2013-10-14 15:20:00,78.6,68.8,29.85,SSW,198,3.0,3.0,72,0.00,,,0.10,Wunderground v.1.15,2013-10-14 20:20:00,
2013-10-14 15:30:00,78.4,68.6,29.85,South,188,3.0,5.0,72,0.00,,,0.10,Wunderground v.1.15,2013-10-14 20:30:00,
2013-10-14 15:40:00,78.7,69.3,29.85,South,188,2.0,2.0,73,0.00,,,0.10,Wunderground v.1.15,2013-10-14 20:40:00,
2013-10-14 15:50:00,78.8,68.6,29.85,SSW,197,7.0,7.0,71,0.00,,,0.10,Wunderground v.1.15,2013-10-14 20:50:00,
2013-10-14 16:00:00,79.1,68.5,29.84,South,188,3.0,8.0,70,0.00,,,0.10,Wunderground v.1.15,2013-10-14 21:00:00,
2013-10-14 16:10:00,79.4,68.8,29.85,South,188,3.0,4.0,70,0.00,,,0.10,Wunderground v.1.15,2013-10-14 21:10:00,
2013-10-14 16:20:00,79.7,69.0,29.84,SSW,213,5.0,7.0,70,0.00,,,0.10,Wunderground v.1.15,2013-10-14 21:20:00,
2013-10-14 16:30:00,79.8,68.3,29.84,SSW,201,6.0,6.0,68,0.00,,,0.10,Wunderground v.1.15,2013-10-14 21:30:00,
2013-10-14 16:40:00,79.6,68.1,29.84,SSW,194,3.0,3.0,68,0.00,,,0.10,Wunderground v.1.15,2013-10-14 21:40:00,
2013-10-14 16:50:00,79.3,68.2,29.84,South,179,3.0,5.0,69,0.00,,,0.10,Wunderground v.1.15,2013-10-14 21:50:00,
2013-10-14 17:00:00,79.0,68.4,29.84,South,178,1.0,1.0,70,0.00,,,0.10,Wunderground v.1.15,2013-10-14 22:00:00,
2013-10-14 17:10:00,78.9,67.9,29.85,South,183,4.0,6.0,69,0.00,,,0.10,Wunderground v.1.15,2013-10-14 22:10:00,
2013-10-14 17:20:00,78.8,68.2,29.84,South,184,4.0,4.0,70,0.00,,,0.10,Wunderground v.1.15,2013-10-14 22:20:00,
2013-10-14 17:30:00,78.7,68.1,29.84,South,184,3.0,3.0,70,0.00,,,0.10,Wunderground v.1.15,2013-10-14 22:30:00,
2013-10-14 17:40:00,78.7,68.5,29.84,South,178,4.0,6.0,71,0.00,,,0.10,Wunderground v.1.15,2013-10-14 22:40:00,
2013-10-14 17:50:00,78.7,68.5,29.83,South,178,4.0,8.0,71,0.00,,,0.10,Wunderground v.1.15,2013-10-14 22:50:00,
2013-10-14 18:00:00,78.8,68.6,29.83,South,179,7.0,8.0,71,0.00,,,0.10,Wunderground v.1.15,2013-10-14 23:00:00,
2013-10-14 18:10:00,78.9,68.3,29.83,South,182,6.0,6.0,70,0.00,,,0.10,Wunderground v.1.15,2013-10-14 23:10:00,
2013-10-14 18:20:00,78.9,68.3,29.84,South,180,4.0,4.0,70,0.00,,,0.10,Wunderground v.1.15,2013-10-14 23:20:00,
2013-10-14 18:30:00,78.5,67.9,29.83,South,181,3.0,4.0,70,0.00,,,0.10,Wunderground v.1.15,2013-10-14 23:30:00,
2013-10-14 18:40:00,78.0,68.2,29.83,South,181,3.0,4.0,72,0.00,,,0.10,Wunderground v.1.15,2013-10-14 23:40:00,
2013-10-14 18:50:00,77.5,68.2,29.83,South,181,1.0,1.0,73,0.00,,,0.10,Wunderground v.1.15,2013-10-14 23:50:00,
2013-10-14 19:00:00,77.3,68.4,29.84,South,181,1.0,1.0,74,0.00,,,0.10,Wunderground v.1.15,2013-10-15 00:00:00,
2013-10-14 19:10:00,76.9,68.4,29.84,South,181,0.0,1.0,75,0.00,,,0.10,Wunderground v.1.15,2013-10-15 00:10:00,
2013-10-14 19:20:00,76.4,68.7,29.84,South,181,1.0,2.0,77,0.00,,,0.10,Wunderground v.1.15,2013-10-15 00:20:00,
2013-10-14 19:30:00,76.0,68.3,29.85,South,181,1.0,1.0,77,0.00,,,0.10,Wunderground v.1.15,2013-10-15 00:30:00,
2013-10-14 19:40:00,75.6,68.6,29.84,South,181,0.0,1.0,79,0.00,,,0.10,Wunderground v.1.15,2013-10-15 00:40:00,
2013-10-14 19:50:00,75.3,68.3,29.84,South,181,0.0,1.0,79,0.00,,,0.10,Wunderground v.1.15,2013-10-15 00:50:00,
2013-10-14 20:00:00,74.7,68.5,29.84,South,181,2.0,2.0,81,0.00,,,0.10,Wunderground v.1.15,2013-10-15 01:00:00,
2013-10-14 20:10:00,74.4,68.2,29.84,South,181,0.0,1.0,81,0.00,,,0.10,Wunderground v.1.15,2013-10-15 01:10:00,
2013-10-14 20:20:00,74.4,68.2,29.85,South,181,0.0,1.0,81,0.00,,,0.10,Wunderground v.1.15,2013-10-15 01:20:00,
2013-10-14 20:30:00,74.3,68.4,29.86,South,181,0.0,1.0,82,0.00,,,0.10,Wunderground v.1.15,2013-10-15 01:30:00,
2013-10-14 20:40:00,74.0,68.5,29.86,South,181,0.0,2.0,83,0.00,,,0.10,Wunderground v.1.15,2013-10-15 01:40:00,
2013-10-14 20:50:00,74.1,69.0,29.86,South,181,1.0,1.0,84,0.00,,,0.10,Wunderground v.1.15,2013-10-15 01:50:00,
2013-10-14 21:00:00,73.9,69.1,29.86,South,181,0.0,1.0,85,0.00,,,0.10,Wunderground v.1.15,2013-10-15 02:00:00,
2013-10-14 21:10:00,73.5,69.1,29.86,South,181,0.0,1.0,86,0.00,,,0.10,Wunderground v.1.15,2013-10-15 02:10:00,
2013-10-14 21:20:00,73.4,69.3,29.86,South,179,1.0,1.0,87,0.00,,,0.10,Wunderground v.1.15,2013-10-15 02:20:00,
2013-10-14 21:30:00,73.6,69.8,29.86,South,178,1.0,1.0,88,0.00,,,0.10,Wunderground v.1.15,2013-10-15 02:30:00,
2013-10-14 21:40:00,73.5,70.1,29.87,South,178,1.0,1.0,89,0.00,,,0.10,Wunderground v.1.15,2013-10-15 02:40:00,
2013-10-14 21:50:00,73.3,69.9,29.87,South,178,0.0,1.0,89,0.00,,,0.10,Wunderground v.1.15,2013-10-15 02:50:00,
2013-10-14 22:00:00,73.1,70.0,29.88,South,178,0.0,1.0,90,0.00,,,0.10,Wunderground v.1.15,2013-10-15 03:00:00,
2013-10-14 22:10:00,72.8,70.0,29.88,South,178,0.0,1.0,91,0.00,,,0.10,Wunderground v.1.15,2013-10-15 03:10:00,
2013-10-14 22:20:00,72.6,69.8,29.88,South,178,0.0,1.0,91,0.00,,,0.10,Wunderground v.1.15,2013-10-15 03:20:00,
2013-10-14 22:30:00,72.5,70.0,29.88,South,178,0.0,1.0,92,0.00,,,0.10,Wunderground v.1.15,2013-10-15 03:30:00,
2013-10-14 22:40:00,72.5,70.0,29.89,South,178,0.0,1.0,92,0.00,,,0.10,Wunderground v.1.15,2013-10-15 03:40:00,
2013-10-14 22:50:00,72.4,70.3,29.88,South,178,0.0,1.0,93,0.00,,,0.10,Wunderground v.1.15,2013-10-15 03:50:00,
2013-10-14 23:00:00,72.3,70.2,29.88,South,178,0.0,1.0,93,0.00,,,0.10,Wunderground v.1.15,2013-10-15 04:00:00,
2013-10-14 23:10:00,72.2,70.1,29.88,South,178,1.0,1.0,93,0.00,,,0.10,Wunderground v.1.15,2013-10-15 04:10:00,
2013-10-14 23:20:00,72.1,70.3,29.88,South,178,1.0,1.0,94,0.00,,,0.10,Wunderground v.1.15,2013-10-15 04:20:00,
2013-10-14 23:30:00,72.1,70.3,29.87,South,178,1.0,1.0,94,0.00,,,0.10,Wunderground v.1.15,2013-10-15 04:30:00,
2013-10-14 23:40:00,72.1,70.3,29.88,South,178,1.0,1.0,94,0.00,,,0.10,Wunderground v.1.15,2013-10-15 04:40:00,
2013-10-14 23:50:00,72.0,70.2,29.88,South,178,0.0,1.0,94,0.00,,,0.10,Wunderground v.1.15,2013-10-15 04:50:00,